Location: Yamada Observatory
(36.7980°N, 119.2990°W)
Time: 20:07:37
(UTC-07:00)

ISS - Visible Passes

Search period start: 26 April 2018 00:00
Search period end: 06 May 2018 00:00
Orbit: 402 x 407 km, 51.6° (Epoch: 27 April)

Date Brightness Start Highest point End Pass type
(mag) Time Alt. Az. Time Alt. Az. Time Alt. Az.
30 Apr -1.5 04:51:12 10° S 04:53:33 19° SE 04:55:55 10° E visible
01 May -3.8 05:34:14 10° SW 05:37:29 73° NW 05:40:45 10° NE visible
02 May -3.3 04:43:44 27° SSW 04:45:12 51° SE 04:48:23 10° ENE visible
03 May -1.9 03:53:34 23° ESE 03:53:34 23° ESE 03:55:42 10° ENE visible
03 May -2.5 05:26:29 10° W 05:29:23 30° NNW 05:32:19 10° NNE visible
04 May -3.5 04:35:57 36° W 04:36:58 56° NW 04:40:11 10° NE visible
05 May -2.6 03:45:37 40° ENE 03:45:37 40° ENE 03:47:52 10° NE visible
05 May -1.5 05:19:16 10° WNW 05:21:24 16° NNW 05:23:31 10° NNE visible
